Hettinger, ND

7:56 AM MST on December 15, 2017 (GMT -0700)
Hettinger Municipal

Weather History for KHEI - September, 2013

Change the Weather History Date:

Wednesday, September 4, 2013

  Actual Average Record
Temperature  
Mean Temperature 72 °F -  
Max Temperature 87 °F 78 °F 100 °F (1998)
Min Temperature 56 °F 46 °F 32 °F (2011)
Degree Days  
Heating Degree Days 0 5  
Month to date heating degree days 2 18  
Since 1 July heating degree days 21 108  
Cooling Degree Days 7 2  
Month to date cooling degree days 21 8  
Year to date cooling degree days 268 357  
Growing Degree Days 22 (Base 50)    
Moisture  
Dew Point 60 °F    
Average Humidity 69    
Maximum Humidity 93    
Minimum Humidity 42    
Precipitation  
Precipitation 0.00 in 0.06 in 0.13 in (1999)
Month to date precipitation 0.00 0.24  
Year to date precipitation 16.60 12.53  
Sea Level Pressure  
Sea Level Pressure 30.07 in    
Wind  
Wind Speed 10 mph (East)    
Max Wind Speed 18 mph    
Max Gust Speed 30 mph    
Visibility 10 miles    
Events      
T = Trace of Precipitation, MM = Missing Value Source: NWS Daily Summary

Daily Weather History Graph

Daily Weather History Graph

Search for Another Location

Airport or City:

Trip Planner

Search our weather history database for the weather conditions in past years. The results will help you decide how hot, cold, wet, or windy it might be!

Date:

Astronomy

Sep. 04, 2013 Rise Set
Actual Time 6:15 AM MDT 7:22 PM MDT
Civil Twilight 5:44 AM MDT 7:53 PM MDT
Nautical Twilight 5:07 AM MDT 8:29 PM MDT
Astronomical Twilight 4:28 AM MDT 9:08 PM MDT
Moon 5:30 AM MDT (9/4) 6:41 PM MDT (9/4)
Length of Visible Light 14h 08m
Length of Day
13h 07m
Waning Crescent, 1% of the Moon is Illuminated
Sep 4
Waning Crescent
Sep 5
New
Sep 12
First Quarter
Sep 19
Full
Sep 26
Last Quarter

Hourly Weather History & Observations

Time (MDT) Temp. Heat Index Dew Point Humidity Pressure Visibility Wind Dir Wind Speed Gust Speed Precip Events Conditions
12:53 AM 59.0 °F - 55.9 °F 90% 30.04 in 10.0 mi Calm Calm - N/A   Clear
1:53 AM 59.0 °F - 55.9 °F 90% 30.02 in 10.0 mi Calm Calm - N/A   Clear
2:53 AM 57.0 °F - 54.0 °F 89% 30.02 in 10.0 mi Calm Calm - N/A   Clear
3:53 AM 57.9 °F - 55.9 °F 93% 30.03 in 10.0 mi Calm Calm - N/A   Clear
4:53 AM 60.1 °F - 57.0 °F 90% 30.04 in 10.0 mi Calm Calm - N/A   Clear
5:53 AM 60.1 °F - 57.9 °F 93% 30.07 in 10.0 mi Calm Calm - N/A   Clear
6:53 AM 63.0 °F - 59.0 °F 87% 30.09 in 10.0 mi ENE 10.4 mph - N/A   Clear
7:53 AM 64.9 °F - 60.1 °F 84% 30.10 in 10.0 mi East 10.4 mph - N/A   Overcast
8:53 AM 68.0 °F - 61.0 °F 78% 30.11 in 10.0 mi East 10.4 mph - N/A   Overcast
9:53 AM 73.9 °F - 63.0 °F 68% 30.11 in 10.0 mi ESE 10.4 mph - N/A   Scattered Clouds
10:53 AM 75.9 °F - 62.1 °F 62% 30.11 in 10.0 mi ESE 12.7 mph - N/A   Scattered Clouds
11:53 AM 81.0 °F 82.2 °F 63.0 °F 54% 30.10 in 10.0 mi East 11.5 mph - N/A   Overcast
12:53 PM 82.0 °F 83.1 °F 63.0 °F 52% 30.09 in 10.0 mi East 15.0 mph 19.6 mph N/A   Mostly Cloudy
1:53 PM 84.9 °F 85.0 °F 61.0 °F 44% 30.07 in 10.0 mi East 17.3 mph - N/A   Clear
2:53 PM 87.1 °F 87.5 °F 62.1 °F 43% 30.07 in 10.0 mi East 16.1 mph 21.9 mph N/A   Clear
3:53 PM 86.0 °F 86.3 °F 62.1 °F 44% 30.06 in 10.0 mi East 13.8 mph - N/A   Clear
4:53 PM 86.0 °F 86.1 °F 61.0 °F 43% 30.05 in 10.0 mi East 12.7 mph 21.9 mph N/A   Clear
5:53 PM 84.0 °F 84.4 °F 61.0 °F 46% 30.04 in 10.0 mi East 16.1 mph - N/A   Clear
6:53 PM 80.1 °F 81.1 °F 61.0 °F 52% 30.05 in 10.0 mi East 10.4 mph - N/A   Clear
7:53 PM 75.0 °F - 62.1 °F 64% 30.07 in 10.0 mi East 11.5 mph - N/A   Clear
8:53 PM 73.0 °F - 60.1 °F 64% 30.09 in 10.0 mi East 10.4 mph - N/A   Clear
9:53 PM 70.0 °F - 60.1 °F 71% 30.09 in 10.0 mi East 11.5 mph - N/A   Clear
10:53 PM 70.0 °F - 60.1 °F 71% 30.09 in 10.0 mi East 12.7 mph - N/A   Clear
11:53 PM 69.1 °F - 60.1 °F 73% 30.07 in 10.0 mi ESE 13.8 mph - N/A   Clear